AO-07 1 07530U 74089B 21035.55417368 -.00000026 00000-0 12563-3 0 9992 2 07530 101.8368 10.2907 0011987 278.1819 200.2877 12.53647204115316 UO-11 1 14781U 84021B 21035.49764679 .00000105 00000-0 18903-4 0 9990 2 14781 97.5907 41.9058 0009132 149.9283 210.2457 14.83243899966225 LO-19 1 20442U 90005G 21035.82091574 .00000004 00000-0 17955-4 0 9998 2 20442 98.7242 350.2094 0011544 185.9871 174.1176 14.32975286621893 HUBBLE 1 20580U 90037B 21035.62615645 .00000532 00000-0 21296-4 0 9994 2 20580 28.4685 223.9015 0002838 72.8734 343.5617 15.09549543491013 MET-2/21 1 22782U 93055A 21035.55749699 .00000018 00000-0 34606-5 0 9991 2 22782 82.5472 49.3848 0021305 306.3740 170.9590 13.83831956385410 AO-27 1 22825U 93061C 21035.51650301 -.00000006 00000-0 15686-4 0 9997 2 22825 98.9244 49.8187 0009370 65.0097 295.2056 14.30105206426980 IO-26 1 22826U 93061D 21035.79810969 -.00000003 00000-0 16674-4 0 9991 2 22826 98.9184 50.0290 0009766 52.8490 307.3582 14.30442884427518 FO-29 1 24278U 96046B 21035.49960037 -.00000055 00000-0 -22124-4 0 9994 2 24278 98.5821 121.0183 0351044 133.9509 229.1167 13.53101991208260 NOAA-15 1 25338U 98030A 21035.75482665 .00000015 00000-0 24837-4 0 9999 2 25338 98.6972 65.3684 0009542 310.6619 49.3730 14.26011546182335 GO-32 1 25397U 98043D 21035.57871998 -.00000003 00000-0 18367-4 0 9998 2 25397 98.7566 341.6056 0002329 98.6044 261.5399 14.23700540172585 ISS 1 25544U 98067A 21035.92525463 .00000939 00000-0 25229-4 0 9992 2 25544 51.6455 276.9027 0002167 337.8297 218.4583 15.48940430268090 NO-44 1 26931U 01043C 21035.34705010 -.00000022 00000-0 23182-4 0 9995 2 26931 67.0499 263.9552 0007374 270.4757 89.5499 14.30605028 10209 SO-50 1 27607U 02058C 21035.13939079 .00000012 00000-0 22007-4 0 9997 2 27607 64.5560 25.9908 0029575 79.1289 281.3139 14.75708287974889 CO-55 1 27844U 03031E 21035.44750758 .00000058 00000-0 45558-4 0 9997 2 27844 98.6822 45.6656 0010917 102.8738 257.3660 14.22286076913078 CO-57 1 27848U 03031J 21035.54200657 .00000040 00000-0 37888-4 0 9998 2 27848 98.6882 46.3267 0010753 114.4105 245.8195 14.21866203912922 RS-22 1 27939U 03042A 21035.85244825 .00000172 00000-0 39376-4 0 9990 2 27939 98.1184 174.0488 0012239 345.0201 15.0638 14.66940632928088 NOAA-18 1 28654U 05018A 21035.56724128 .00000056 00000-0 54898-4 0 9994 2 28654 99.0132 99.7996 0013357 298.3689 61.6135 14.12578537809680 CO-58 1 28895U 05043F 21035.61804760 .00000148 00000-0 37283-4 0 9997 2 28895 98.0373 171.9311 0015478 268.4130 91.5299 14.63861055814575 Falconsat-3 1 30776U 07006E 21035.60804827 .00004494 00000-0 11293-3 0 9992 2 30776 35.4329 233.1848 0001537 145.9151 214.1675 15.39471800772619 CO-65 1 32785U 08021C 21035.51504940 .00000323 00000-0 40188-4 0 9998 2 32785 97.5970 19.6370 0014508 84.5918 275.6954 14.88624920692462 AAUSAT2 1 32788U 08021F 21035.54000805 .00001112 00000-0 10558-3 0 9999 2 32788 97.4991 35.8342 0011659 4.4717 355.6607 14.95375422693999 DO-64 1 32789U 08021G 21035.57045269 .00001744 00000-0 11573-3 0 9995 2 32789 97.3930 75.9849 0010688 234.3931 125.6303 15.08460060696799 CO-66 1 32791U 08021J 21035.51357905 .00000608 00000-0 66321-4 0 9995 2 32791 97.5595 25.6631 0014462 53.2188 307.0356 14.91266633693048 RS-30 1 32953U 08025A 21035.75244486 .00000028 00000-0 12906-3 0 9999 2 32953 82.5059 133.4707 0018429 265.1339 94.7636 12.43099592576491 PRISM 1 33493U 09002B 21035.83084672 .00001280 00000-0 11538-3 0 9994 2 33493 98.1731 352.1427 0015448 12.5652 347.5951 14.97419615654488 NOAA-19 1 33591U 09005A 21035.80150488 .00000000 00000-0 25494-4 0 9998 2 33591 99.1926 53.1576 0014559 141.7959 218.4246 14.12450989618191 TISAT-1 1 36799U 10035E 21035.49891826 .00000371 00000-0 43126-4 0 9992 2 36799 98.2032 220.9331 0010969 291.6954 68.3095 14.91590778573514 JUGNU 1 37839U 11058B 21035.80325757 .00000325 00000-0 31654-4 0 9996 2 37839 19.9619 313.6845 0018984 70.3608 322.2504 14.12702522481794 SRMSAT 1 37841U 11058D 21035.31873613 .00000292 00000-0 15312-4 0 9990 2 37841 19.9735 25.7430 0011636 271.0526 241.1440 14.10684041480894 AO-71 1 37854U 11061E 21035.57825398 .00001292 00000-0 71058-4 0 9993 2 37854 101.7123 253.0295 0155902 91.2128 270.6951 15.08127712506909 HRBE 1 37855U 11061F 21035.54115563 .00001635 00000-0 86346-4 0 9994 2 37855 101.7260 250.0176 0168418 105.8591 256.1258 15.07163336506156 HORYU-2 1 38340U 12025D 21035.41043016 .00000184 00000-0 34628-4 0 9998 2 38340 98.2508 100.1841 0011831 26.8595 333.3223 14.75970367458764 RS-40 1 38735U 12041C 21035.49982858 -.00000010 00000-0 -14319-3 0 9992 2 38735 82.4746 215.9678 0017424 18.0407 342.1289 12.42581561386679 BEESAT-3 1 39135U 13015F 21035.07060204 .00001020 00000-0 58158-4 0 9995 2 39135 64.8655 273.0617 0014079 203.3836 156.6652 15.18882752430385 BEESAT-2 1 39136U 13015G 21035.40859611 .00001397 00000-0 76996-4 0 9998 2 39136 64.8734 277.8197 0028349 261.4727 98.3187 15.18269657430319 ZACUBE-1 1 39417U 13066B 21035.52741760 .00000261 00000-0 38952-4 0 9993 2 39417 97.5815 26.8368 0057410 236.1880 123.3860 14.81422004389390 TRITON-1 1 39427U 13066M 21035.69268328 .00000308 00000-0 56579-4 0 9993 2 39427 97.7591 350.1478 0114729 55.7855 305.4159 14.68144468385933 GOMX-1 1 39430U 13066Q 21035.74287502 .00000157 00000-0 37181-4 0 9998 2 39430 97.8093 326.4694 0150710 172.3451 188.0109 14.59529303383684 LO-74 1 39440U 13066AA 21035.66568990 .00000332 00000-0 52970-4 0 9991 2 39440 97.6596 11.6997 0078791 307.1198 52.2830 14.76156266388034 AO-73 1 39444U 13066AE 21035.52451665 .00000308 00000-0 43936-4 0 9995 2 39444 97.5734 29.1662 0056637 227.0417 132.6041 14.82308577388334 SPROUT 1 39770U 14029E 21035.76090100 .00000944 00000-0 10853-3 0 9993 2 39770 97.9076 147.2809 0007819 287.7703 72.2642 14.88162019363607 DUCHIFAT-1 1 40021U 14033M 21035.54555584 .00000440 00000-0 50158-4 0 9991 2 40021 97.9619 334.4402 0011467 240.0599 119.9481 14.91169170360470 NANOSATCBR1 1 40024U 14033Q 21035.56620081 .00000516 00000-0 59003-4 0 9993 2 40024 97.9430 330.0356 0010797 245.6722 114.3368 14.90295231360322 DTUSAT-2 1 40030U 14033W 21035.76307318 .00000298 00000-0 37832-4 0 9990 2 40030 97.9122 323.0885 0010464 249.6396 110.3697 14.88883772360082 EO-80 1 40032U 14033Y 21035.52070826 .00000343 00000-0 42664-4 0 9997 2 40032 97.9130 322.8512 0010393 251.5693 108.4394 14.88837818360037 ANTELSAT 1 40034U 14033AA 21035.51467539 .00000264 00000-0 46281-4 0 9990 2 40034 97.6894 245.7576 0057861 329.8211 29.9669 14.74393188356075 VELOX-1 1 40057U 14034E 21035.85335006 .00000358 00000-0 57276-4 0 9996 2 40057 98.3069 185.6644 0012069 119.6280 240.6139 14.78058039355959 DAURIA DX 1 1 40071U 14037C 21035.86863889 .00000106 00000-0 21033-4 0 9994 2 40071 98.4573 233.1922 0009589 109.7082 250.5167 14.81448795355662 HODOYOSHI-1 1 40299U 14070B 21035.85848411 .00000712 00000-0 31789-4 0 9998 2 40299 97.3006 112.9598 0014669 95.4143 16.3126 15.24454275347213 CHUBUSAT-1 1 40300U 14070C 21035.11910594 .00000887 00000-0 40511-4 0 9998 2 40300 97.2614 103.0338 0020972 114.9161 304.2657 15.22923382346769 QSAT-EOS 1 40301U 14070D 21035.83648743 .00002158 00000-0 80973-4 0 9991 2 40301 97.2692 110.7944 0026245 84.8037 24.8255 15.27983899347405 FIREBIRD FU3 1 40377U 15003B 21035.74576849 .00003524 00000-0 13385-3 0 9998 2 40377 99.0826 149.4680 0119365 257.3288 101.4576 15.21356708332616 FIREBIRD FU4 1 40378U 15003C 21035.52897978 .00003758 00000-0 14220-3 0 9992 2 40378 99.0830 149.3268 0119476 257.8989 100.8834 15.21394438332576 GRIFEX 1 40379U 15003D 21035.75517411 .00001854 00000-0 79650-4 0 9993 2 40379 99.0835 140.0116 0129284 287.0747 71.6354 15.17322779332067 NO-84 1 40654U 15025D 21034.35922536 .00024922 00000-0 22289-3 0 1804 2 40654 54.9821 310.9768 0099125 72.0033 289.1884 15.62075934205004 DEORBITSAIL 1 40719U 15032E 21035.44757111 .00000452 00000-0 70710-4 0 9993 2 40719 97.8454 284.0298 0016166 173.3495 186.7934 14.77226227300343 NUDT-PHONESAT 1 40900U 15049B 21035.85839212 .00002849 00000-0 11548-3 0 9996 2 40900 97.4253 50.8969 0010583 242.6875 240.0799 15.25431887298603 XW-2A 1 40903U 15049E 21035.91022082 .00002812 00000-0 62720-4 0 9994 2 40903 97.2565 90.7368 0014065 132.3390 347.2958 15.44330919302330 XW-2C 1 40906U 15049H 21035.88244414 .00000757 00000-0 42277-4 0 9999 2 40906 97.4831 39.9360 0013045 290.4710 184.9738 15.16464327297477 XW-2D 1 40907U 15049J 21035.83148733 .00000724 00000-0 40315-4 0 9997 2 40907 97.4819 39.6389 0012470 287.3978 156.5910 15.16747609297490 LILACSAT-2 1 40908U 15049K 21035.87231578 .00000635 00000-0 38267-4 0 9996 2 40908 97.5002 37.7122 0014361 301.4708 178.3496 15.14277251297164 XW-2E 1 40909U 15049L 21035.86990015 .00001412 00000-0 70518-4 0 9993 2 40909 97.4659 43.5113 0011590 273.0307 207.1533 15.19075187297800 XW-2F 1 40910U 15049M 21035.82249722 .00001195 00000-0 61013-4 0 9991 2 40910 97.4716 42.5394 0012836 273.0865 166.6681 15.18578576297597 XW-2B 1 40911U 15049N 21035.82598436 .00000687 00000-0 38471-4 0 9998 2 40911 97.4828 40.3284 0012376 288.6163 148.9945 15.16667731297381 DCBB 1 40912U 15049P 21035.84863517 .00001374 00000-0 64895-4 0 9999 2 40912 97.4471 46.8920 0012960 243.8916 237.9273 15.21055305298032 TW-1C 1 40926U 15051B 21035.86205641 .00276848 32024-4 68899-3 0 9999 2 40926 97.0447 97.6097 0002512 244.4584 233.0546 15.95835482303596 TW-1A 1 40928U 15051D 21035.90774485 .00004057 00000-0 89373-4 0 9990 2 40928 97.0894 64.0268 0011641 62.8435 57.5389 15.44433660301220 IO-86 1 40931U 15052B 21035.69164546 .00000680 00000-0 55525-5 0 9993 2 40931 5.9996 119.2465 0013978 326.7831 33.1541 14.76661367289646 LQSat 1 40958U 15057A 21035.68856424 .00000037 00000-0 13224-4 0 9994 2 40958 97.8226 97.1058 0019341 121.0317 239.2790 14.73154436286696 ATHENOXAT-1 1 41168U 15077C 21035.70075716 .00002403 00000-0 88113-4 0 9998 2 41168 14.9893 156.6314 0011165 121.6798 275.8320 15.15142167284611 ChubuSat-2 1 41338U 16012B 21035.15549424 .00000379 00000-0 22606-4 0 9993 2 41338 31.0040 313.4709 0013828 252.3644 107.5481 15.00434799272564 ChubuSat-3 1 41339U 16012C 21035.79058922 .00000333 00000-0 18914-4 0 9999 2 41339 31.0133 306.8014 0013656 267.3195 92.5881 15.00589671272656 Horyu-4 1 41340U 16012D 21035.42546844 .00000629 00000-0 40496-4 0 9994 2 41340 31.0053 294.2934 0013961 291.1331 68.7812 15.01732818272772 OUFTI-1 1 41458U 16025C 21035.30154734 .00005130 00000-0 25113-3 0 9998 2 41458 98.1233 164.6019 0161151 148.3970 212.7058 15.07924619262407 e-st@r-II 1 41459U 16025D 21035.81768773 .00004216 00000-0 20881-3 0 9990 2 41459 98.1223 164.3537 0163240 149.3377 211.7515 15.07410455262430 AAUSAT4 1 41460U 16025E 21035.90408081 .00004955 00000-0 23560-3 0 9992 2 41460 98.1210 167.6878 0150534 134.9018 226.4582 15.10170453262708 LO-87 1 41557U 16033B 21035.88944708 .00001673 00000-0 62277-4 0 9999 2 41557 97.3958 130.6430 0012723 352.7452 116.2686 15.28843590261278 NuSat2 1 41558U 16033C 21035.87515263 .00001944 00000-0 67566-4 0 9996 2 41558 97.4041 133.8564 0011543 348.2551 121.6557 15.30917999261438 Lapan A3 1 41603U 16040E 21035.74606406 .00000113 00000-0 82996-5 0 9993 2 41603 97.2773 87.5681 0015137 106.2029 1.4800 15.19954600256425 Swayam 1 41607U 16040J 21035.40732463 .00002519 00000-0 10300-3 0 9993 2 41607 97.2879 95.0064 0014526 89.4891 270.8012 15.25161473256764 Pratham 1 41783U 16059A 21035.58740217 .00000059 00000-0 20480-4 0 9991 2 41783 97.9854 90.1091 0032373 306.2174 53.6036 14.63109792232820 AlSat 1N 1 41789U 16059G 21035.67699419 .00000113 00000-0 30307-4 0 9994 2 41789 97.9882 93.5675 0026891 291.5976 68.2357 14.64385832233018 ScatSat 1 41790U 16059H 21035.74006301 -.00000795 00000-0 -19068-3 0 9994 2 41790 98.3874 78.2145 0004258 295.3795 64.6988 14.50788453230908 TY-1 1 41844U 16066D 21035.83596988 .00001084 00000-0 45718-4 0 9999 2 41844 97.4014 47.4387 0013083 243.8283 217.7588 15.25393772235682 Pegasus-1 1 41846U 16066F 21035.57551641 .00000262 00000-0 50931-4 0 9999 2 41846 98.6308 93.6878 0365221 261.5798 94.3841 14.37932383222320 CAS-2T 1 41847U 16066G 21035.45139906 .00000078 00000-0 23030-4 0 9998 2 41847 98.6222 93.9050 0364376 257.2449 98.7790 14.38142336222767 EO-88 1 42017U 17008BX 21035.41046014 .00002604 00000-0 99607-4 0 9998 2 42017 97.3332 105.3466 0005263 205.9988 154.0987 15.27456374220940 CAS-4B 1 42759U 17034B 21035.82191764 .00000248 00000-0 28364-4 0 9992 2 42759 43.0164 190.1606 0009137 45.3901 98.0634 15.10059949201097 CAS-4A 1 42761U 17034D 21035.82016392 .00000241 00000-0 27878-4 0 9990 2 42761 43.0164 189.3150 0009397 47.2427 96.3836 15.10140732201092 UCLSat 1 42765U 17036A 21035.41732355 .00001885 00000-0 79942-4 0 9999 2 42765 97.2703 89.0883 0009393 290.9473 69.0760 15.24289618201904 NIUSat 1 42766U 17036B 21035.35796932 .00001378 00000-0 62682-4 0 9994 2 42766 97.2703 85.8453 0013526 286.2577 73.7172 15.22299354200968 LituanicaSAT 2 1 42768U 17036D 21035.41083680 .00003589 00000-0 14496-3 0 9997 2 42768 97.2773 89.5070 0012423 277.1438 82.8388 15.25332652201180 Aalto 1 1 42775U 17036L 21035.39526166 .00001155 00000-0 52981-4 0 9992 2 42775 97.2677 86.1852 0011988 285.5003 74.4910 15.22320177200956 URSA MAIOR 1 42776U 17036M 21035.09070663 .00001114 00000-0 50858-4 0 9992 2 42776 97.2691 86.2838 0011793 286.1280 73.8659 15.22551887200920 Max Valier Sat 1 42778U 17036P 21035.55479468 .00001207 00000-0 53892-4 0 9995 2 42778 97.2752 88.4146 0010336 286.9090 73.1013 15.23187564201055 Pegasus 1 42784U 17036V 21035.55900330 .00001583 00000-0 68328-4 0 9996 2 42784 97.2710 88.8160 0009991 291.7885 68.2289 15.23913514201116 NUDATSat 1 42787U 17036Y 21035.85332479 .00002523 00000-0 10206-3 0 9991 2 42787 97.2753 91.0969 0009135 285.5766 74.4461 15.25580873201119 SUCHAI 1 1 42788U 17036Z 21035.35980639 .00002000 00000-0 83891-4 0 9995 2 42788 97.2720 89.4481 0009463 289.8304 70.1913 15.24597805201200 SKCUBE 1 42789U 17036AA 21035.56490866 .00001779 00000-0 75393-4 0 9997 2 42789 97.2713 89.4185 0009375 289.7546 70.2680 15.24380419201149 VZLUSAT 1 1 42790U 17036AB 21035.58311899 .00002652 00000-0 10724-3 0 9996 2 42790 97.2744 90.8225 0008750 285.0529 74.9741 15.25554263201221 VENTA 1 1 42791U 17036AC 21035.41127441 .00001731 00000-0 73516-4 0 9993 2 42791 97.2710 89.2965 0009081 291.1272 68.8995 15.24352800201112 Robusta 1B 1 42792U 17036AD 21035.42237102 .00001990 00000-0 83497-4 0 9997 2 42792 97.2716 89.6095 0008972 290.5836 69.4439 15.24597403201158 D-SAT 1 42794U 17036AF 21035.52446381 .00000340 00000-0 34852-4 0 9990 2 42794 97.4732 62.4019 0124568 310.5936 48.4496 14.91444412197281 TechnoSat 1 42829U 17042E 21035.59731279 .00000329 00000-0 38376-4 0 9998 2 42829 97.4890 272.0252 0013011 226.8286 133.1847 14.91213123193887 QIKCOM-1 1 42983U 98067NF 21035.56574180 .00008021 00000-0 87444-4 0 9995 2 42983 51.6360 213.3762 0003494 201.1116 158.9736 15.64420951186589 AO-91 1 43017U 17073E 21035.49872528 .00001226 00000-0 99533-4 0 9993 2 43017 97.7165 304.7046 0256253 14.3635 346.4686 14.79295128173467 EcAMSat 1 43019U 98067NG 21035.51489192 .00021725 00000-0 16303-3 0 9990 2 43019 51.6389 189.1214 0003514 205.7849 154.2975 15.72537589269221 PICSAT 1 43132U 18004X 21035.17084169 .00001804 00000-0 74559-4 0 9990 2 43132 97.4236 110.8811 0008175 326.5486 33.5235 15.25264786170365 AO-92 1 43137U 18004AC 21035.46277622 .00001542 00000-0 65106-4 0 9992 2 43137 97.4216 110.8078 0007914 328.7997 31.2770 15.24775933170396 TianYi 2 1 43155U 18008A 21035.86690113 .00001171 00000-0 71433-4 0 9992 2 43155 97.4198 104.7329 0018919 68.7504 55.2483 15.12102785168039 Zhou Enlai 1 43156U 18008B 21035.89715456 .00000688 00000-0 44019-4 0 9996 2 43156 97.4239 104.5987 0016160 68.7622 48.6827 15.11678298167988 TianYi 6 1 43158U 18008D 21035.11861537 .00001253 00000-0 78286-4 0 9997 2 43158 97.4191 102.6015 0014955 70.2380 350.5421 15.11156190167805 S-Net D 1 43186U 18014G 21035.47604240 .00000360 00000-0 36298-4 0 9995 2 43186 97.6852 305.3970 0011425 161.1171 199.0477 14.96957854164409 S-Net B 1 43187U 18014H 21035.47591786 .00000352 00000-0 35655-4 0 9993 2 43187 97.6850 305.3680 0011424 161.0898 199.0750 14.96957380164408 S-Net A 1 43188U 18014J 21035.47585849 .00000352 00000-0 35632-4 0 9992 2 43188 97.6854 305.4070 0011412 161.2268 198.9376 14.96956082164407 S-Net C 1 43189U 18014K 21035.47634820 .00000376 00000-0 37704-4 0 9995 2 43189 97.6850 305.3621 0011423 161.0388 199.1261 14.96956377162959 FMN 1 1 43192U 18015A 21035.89235456 .00003024 00000-0 11673-3 0 9997 2 43192 97.4681 170.8860 0014652 356.4822 103.2223 15.26985165167357 Shaonian Xing 1 43199U 18015H 21035.88407292 .00002098 00000-0 82293-4 0 9999 2 43199 97.4468 168.4939 0016222 6.1535 93.0205 15.26780190167416 SurfSat 1 43614U 18070B 21035.79068793 .00004422 00000-0 10755-3 0 9997 2 43614 93.0241 250.8911 0015659 149.1520 211.0658 15.40880054134234 CP-7 DAVE 1 43615U 18070C 21035.78510020 .00004123 00000-0 10109-3 0 9993 2 43615 93.0243 250.8611 0015845 149.0250 211.1943 15.40638817134225 ELFIN-B 1 43616U 18070D 21035.76652208 .00007078 00000-0 16126-3 0 9994 2 43616 93.0202 250.9103 0015850 148.7299 211.4903 15.42816513134304 ELFIN-A 1 43617U 18070E 21035.37190700 .00007293 00000-0 16431-3 0 9994 2 43617 93.0254 251.4664 0015244 146.8027 213.4189 15.43157213134253 STARS-Me Mother 1 43640U 98067PQ 21035.55599415 .00048314 00000-0 28899-3 0 9990 2 43640 51.6306 203.2214 0003720 201.8357 158.2486 15.77341673133197 CubeBel 1 1 43666U 18083E 21035.72040333 .00001351 00000-0 67971-4 0 9992 2 43666 97.4693 65.6962 0013016 271.8590 195.9856 15.18880539125865 Changshagaoxin 1 43669U 18083H 21035.87040847 .00000951 00000-0 50399-4 0 9992 2 43669 97.4583 63.3237 0009040 265.7740 197.0553 15.17771285125770 Ten-Koh 1 43677U 18084G 21035.79503368 .00000169 00000-0 23227-4 0 9996 2 43677 97.9030 158.6541 0017392 110.7447 249.5636 14.90395958123546 PO-101 1 43678U 18084H 21035.90837105 .00000406 00000-0 46097-4 0 9993 2 43678 97.9054 160.6707 0011278 124.3866 235.8434 14.91706367123672 IRVINE 01 1 43693U 18088D 21035.67926319 .00004101 00000-0 16493-3 0 9996 2 43693 85.0332 283.1341 0017752 148.5794 211.6513 15.24427069124208 QO-100 1 43700U 18090A 21035.55909856 .00000141 00000-0 00000-0 0 9996 2 43700 0.0163 97.0860 0002177 263.7880 1.0938 1.00272383 8035 Reaktor Hello World 1 43743U 18096AA 21035.16208926 .00001678 00000-0 63537-4 0 9990 2 43743 97.3993 113.6717 0018261 33.5386 326.7006 15.28205893121770 MinXSS-2 1 43758U 18099A 21035.46408644 .00000536 00000-0 52966-4 0 9997 2 43758 97.6822 109.3343 0016735 131.2794 228.9871 14.95895705118634 AO-95 1 43770U 18099N 21035.41369136 .00000835 00000-0 81056-4 0 9992 2 43770 97.6814 108.4517 0015679 138.4833 221.7582 14.95187671118570 RANGE-B 1 43772U 18099Q 21035.46711354 .00000756 00000-0 73400-4 0 9998 2 43772 97.6889 109.3035 0015409 126.9691 233.2943 14.95444168118581 RANGE-A 1 43773U 18099R 21035.47800189 .00000690 00000-0 67990-4 0 9999 2 43773 97.6751 107.9643 0014875 126.1839 234.0760 14.95115203118571 MOVE-II 1 43780U 18099Y 21035.15783055 .00000853 00000-0 81616-4 0 9996 2 43780 97.6827 108.5945 0014658 136.2039 224.0347 14.95713820118544 SNUSat 2 1 43782U 18099AA 21035.46830460 .00000593 00000-0 58708-4 0 9992 2 43782 97.6808 108.7999 0014062 125.6542 234.5991 14.95438175118599 SnugLite 1 43784U 18099AC 21035.15279724 .00000710 00000-0 69028-4 0 9998 2 43784 97.6778 108.2527 0016292 133.6875 226.5699 14.95553808118568 ITASat 1 1 43786U 18099AE 21035.15910950 .00000458 00000-0 46431-4 0 9995 2 43786 97.6833 108.7873 0016359 132.9041 227.3556 14.95501348118565 EAGLET 1 1 43790U 18099AJ 21035.15920827 .00000515 00000-0 51101-4 0 9998 2 43790 97.6823 109.1441 0014627 136.1228 224.1158 14.95880040118285 ESEO 1 43792U 18099AL 21035.45966451 .00000053 00000-0 99244-5 0 9994 2 43792 97.6786 109.1292 0014360 133.0237 227.2190 14.95681878118388 CSIM 1 43793U 18099AM 21035.48585944 .00001179 00000-0 10899-3 0 9999 2 43793 97.6808 109.3451 0014443 129.8776 230.3718 14.96369892118387 Astrocast 0.1 1 43798U 18099AS 21035.45932085 .00000185 00000-0 21536-4 0 9990 2 43798 97.6819 109.5909 0013663 117.2618 242.9997 14.96024110118630 JO-97 1 43803U 18099AX 21035.47816070 .00000928 00000-0 88300-4 0 9991 2 43803 97.6791 108.8704 0016423 132.3355 227.9261 14.95717327118617 Suomi 100 1 43804U 18099AY 21035.14688909 .00000847 00000-0 81029-4 0 9995 2 43804 97.6789 108.5221 0016448 133.4334 226.8259 14.95695604118575 Al Farabi 2 1 43805U 18099AZ 21035.83467028 .00000697 00000-0 67300-4 0 9998 2 43805 97.6793 109.3578 0016823 131.1521 229.1129 14.95879740118684 PWSat 2 1 43814U 18099BJ 21035.55344463 .00444500 00000-0 65749-2 0 9992 2 43814 97.7820 131.0283 0006449 253.1275 106.9271 15.53722423119057 CHOMPTT 1 43855U 18104G 21035.73378111 .00001634 00000-0 66528-4 0 9996 2 43855 85.0370 21.4428 0014833 277.5088 82.4469 15.23559871118882 ISAT 1 43879U 18111D 21035.80901057 .00000091 00000-0 13105-4 0 9998 2 43879 97.6927 305.3591 0012652 181.4785 178.6414 14.96468441113215 UWE-4 1 43880U 18111E 21035.48395865 .00000824 00000-0 77094-4 0 9999 2 43880 97.6949 305.4364 0012150 182.3136 177.8031 14.96713746115199 Sparrow 1 43881U 18111F 21035.19193866 -.00000084 00000-0 -22663-5 0 9998 2 43881 97.6959 305.2570 0012086 182.1553 177.9619 14.96764528115150 Lume 1 1 43908U 18111AJ 21035.67406185 .00001641 00000-0 66691-4 0 9998 2 43908 97.2477 294.5555 0022082 44.9496 315.3526 15.25728935117424 FO-98 1 43933U 19003B 21035.58848075 .00006686 00000-0 27867-3 0 9990 2 43933 97.2016 82.1327 0018705 140.5428 219.7176 15.23858319113853 FO-99 1 43937U 19003F 21035.09569785 .00001667 00000-0 68680-4 0 9991 2 43937 97.1965 83.5270 0025043 123.1870 237.1775 15.25157740113932 Delphini 1 1 44030U 98067PW 21035.55415879 .00165486 21093-4 54283-3 0 9990 2 44030 51.6260 203.0842 0004933 254.5235 105.5226 15.90219916115064 MYSat 1 1 44045U 18092F 21035.57154705 .00004988 00000-0 13924-3 0 9993 2 44045 51.6392 353.9411 0011598 84.0427 276.1879 15.38509515110992 AstroCast 0.2 1 44083U 19018F 21035.13740145 .00000916 00000-0 42994-4 0 9992 2 44083 97.3922 98.6298 0014661 81.7694 278.5204 15.22075621102617 AISTechSat 3 1 44103U 19018AB 21035.76573669 .00000987 00000-0 43960-4 0 9991 2 44103 97.3783 99.5637 0015108 91.6313 4.9768 15.23687489102806 AISat 1 1 44104U 19018AC 21035.47705773 .00001576 00000-0 51516-4 0 9994 2 44104 97.4396 112.3424 0058878 108.0541 252.7128 15.31643354103315 Raavana-1 1 44329U 98067QE 21035.56884659 .00026661 00000-0 25748-3 0 9994 2 44329 51.6357 244.9065 0006028 154.6658 205.4634 15.66246155 93267 Uguisu 1 44330U 98067QF 21035.60045233 .00026507 00000-0 25824-3 0 9992 2 44330 51.6339 245.0572 0005978 153.8178 206.3121 15.66030805 93247 NepaliSat-1 1 44331U 98067QG 21035.56030809 .00026004 00000-0 25152-3 0 9997 2 44331 51.6335 244.7900 0006015 156.4398 203.6874 15.66223463 93251 Prox-1 1 44339U 19036A 21035.51614580 .00001024 00000-0 19180-3 0 9992 2 44339 24.0004 91.3149 0010687 163.2474 196.8371 14.53354387 85855 Oculus-ASR 1 44348U 19036K 21035.83769772 .00010353 00000-0 14379-3 0 9991 2 44348 28.5165 293.6831 0345942 275.8437 80.2827 15.07975415 88846 Armadillo 1 44352U 19036P 21035.39310773 .00016744 00000-0 22604-3 0 9990 2 44352 28.5315 283.8129 0323851 290.5239 66.0886 15.13270502 88858 NO-104 1 44354U 19036R 21035.79288553 .00011318 00000-0 15435-3 0 9992 2 44354 28.5313 288.9034 0341759 281.9382 74.3096 15.09268525 88873 NO-103 1 44355U 19036S 21034.99479647 .00025037 00000-0 30698-3 0 9991 2 44355 28.5286 267.5513 0299178 316.7083 41.0361 15.20291698 89035 CP9 1 44360U 19036X 21035.59201520 .00057666 -52704-5 52177-3 0 9990 2 44360 28.5079 224.7567 0253726 27.8633 333.5305 15.35019819 89378 Move-IIb 1 44398U 19038N 21035.87516745 .00001927 00000-0 11175-3 0 9990 2 44398 97.5646 0.6620 0026188 48.9264 311.4224 15.13109106 87716 SONATE 1 44400U 19038Q 21035.86150059 .00000734 00000-0 45910-4 0 9995 2 44400 97.5701 0.6089 0026481 48.2745 312.0746 15.12302060 87690 BeeSat 9 1 44412U 19038AC 21035.34640957 .00001421 00000-0 84059-4 0 9993 2 44412 97.5710 0.2836 0023773 54.9806 305.3651 15.12865578 87320 JAISAT-1 1 44419U 19038F 21035.62320447 .00001463 00000-0 85327-4 0 9995 2 44419 97.5711 1.0005 0022604 52.8780 307.4512 15.13350304 87703 LightSail-2 1 44420U 19036AC 21035.45406867 .00005596 00000-0 11361-2 0 9993 2 44420 24.0069 79.0048 0015285 136.6480 223.5217 14.58404173 84140 Taurus 1 1 44530U 19059C 21035.79849812 .00000674 00000-0 20217-3 0 9991 2 44530 98.5567 125.0323 0015075 177.7385 182.3866 14.45881448 73911 Duchifat 3 1 44854U 19089C 21035.74114124 .00000471 00000-0 44245-4 0 9992 2 44854 36.9646 165.3598 0006614 145.4385 214.6787 14.99315227 63170 OPS-SAT 1 44878U 19092F 21035.48308454 .00001328 00000-0 72337-4 0 9999 2 44878 97.4697 220.9667 0012428 272.1950 87.7860 15.16101295 62689 TO-108 1 44881U 19093C 21035.81257226 .00000115 00000-0 21529-4 0 9991 2 44881 97.9369 116.0187 0015285 9.8256 350.3249 14.81420753 61092 FloripaSat 1 1 44885U 19093G 21035.77100810 .00000302 00000-0 44523-4 0 9993 2 44885 97.9379 116.3768 0014921 18.3294 341.8447 14.82192279 61116 RS-44 1 44909U 19096E 21035.17013826 .00000018 00000-0 22640-4 0 9997 2 44909 82.5206 201.3506 0218039 44.9506 316.9019 12.79708374 51822 SwampSat-2 1 45115U 19071E 21035.37633937 .00030530 00000-0 67428-3 0 9997 2 45115 51.6389 313.6134 0010279 166.9666 193.1588 15.43544353 56823 HO-107 1 45119U 19071J 21035.76319285 .00002674 00000-0 89015-4 0 9996 2 45119 51.6432 319.8230 0011886 167.4321 192.6960 15.34834229 56787 Phoenix 1 45258U 98067RB 21034.91311000 .00007816 00000-0 12592-3 0 9993 2 45258 51.6396 275.8023 0006647 118.7624 241.4035 15.53955610 54429 AztechSat-1 1 45261U 98067RE 21034.93210386 .00020759 00000-0 27483-3 0 9990 2 45261 51.6380 271.4396 0007939 137.0464 223.1150 15.58236287 54503 QARMAN 1 45263U 98067RG 21035.06524427 .00015503 00000-0 22174-3 0 9994 2 45263 51.6393 273.0772 0007634 133.1641 226.9990 15.56387782 54532 Quetzal 1 1 45598U 98067RL 21034.97043814 .00013081 00000-0 19760-3 0 9996 2 45598 51.6408 276.2041 0002460 191.7646 168.3288 15.55077090 43759 BY70-2 1 45857U 20042B 21035.84925554 .00000994 00000-0 14942-3 0 9995 2 45857 97.9952 112.9566 0009512 278.1994 81.8137 14.76665062 31970 UPMSat 2 1 46276U 20061E 21035.45005243 .00000724 00000-0 40799-4 0 9994 2 46276 97.4473 111.8300 0003035 98.1415 262.0162 15.16263201 23386 AmicalSat 1 46287U 20061R 21035.47423815 .00000953 00000-0 62136-4 0 9990 2 46287 97.5023 111.5898 0002926 162.5827 197.5503 15.10213075 23277 SALSAT 1 46495U 20068K 21035.61240415 .00000223 00000-0 20895-4 0 9993 2 46495 97.6835 334.0016 0017844 155.5738 204.6337 15.03344342 19377 BY70-3 1 46839U 20079N 21035.90000213 .00002452 00000-0 79911-4 0 9998 2 46839 97.2544 112.3857 0006218 334.0942 138.9032 15.32754093 13898 SPOC 1 46921U 98067RR 21035.39390678 .00008378 00000-0 14513-3 0 9991 2 46921 51.6420 278.2796 0001140 304.8149 55.2733 15.51806329 14187 Bobcat-1 1 46922U 98067RS 21035.05529144 .00011448 00000-0 19147-3 0 9997 2 46922 51.6430 279.7710 0000683 312.3244 47.7688 15.52385408 14098 Neutron-1 1 46923U 98067RT 21035.52821848 .00007896 00000-0 13774-3 0 9998 2 46923 51.6422 277.6757 0001155 332.4489 27.6439 15.51702621 14233 CAPE 3 1 47309U 21002A 21035.55224387 .00001584 00000-0 84285-4 0 9994 2 47309 60.6866 68.6212 0018520 310.0671 49.8789 15.20311032 2674 OBJECT B 1 47310U 21002B 21035.35109703 .00002646 00000-0 13129-3 0 9996 2 47310 60.6868 69.3388 0016560 311.9916 47.9758 15.20659000 2635 RadFxSat-2 1 47311U 21002C 21034.94997727 .00000946 00000-0 53949-4 0 9998 2 47311 60.6878 70.7846 0014077 305.7847 54.1930 15.21223688 2550 OBJECT D 1 47312U 21002D 21035.40907414 .00007000 00000-0 32043-3 0 9994 2 47312 60.6892 69.0588 0014502 307.3069 52.6695 15.21399885 2619 OBJECT E 1 47313U 21002E 21035.53561965 .00002510 00000-0 12137-3 0 9999 2 47313 60.6867 68.5402 0016248 290.8155 69.1191 15.21756298 2644 MiTEE 1 1 47314U 21002F 21035.39730948 .00002130 00000-0 10310-3 0 9992 2 47314 60.6858 68.9969 0014638 282.2864 77.6584 15.22345587 2646 OBJECT G 1 47315U 21002G 21035.52461072 .00001092 00000-0 58064-4 0 9992 2 47315 60.6839 68.4827 0012370 279.4274 80.5415 15.22680227 2669 OBJECT J 1 47317U 21002J 21035.48561123 .00001518 00000-0 81137-4 0 9997 2 47317 60.6864 68.8626 0018258 309.3151 50.6315 15.20383865 2638 OBJECT K 1 47318U 21002K 21035.48524888 .00001486 00000-0 79584-4 0 9992 2 47318 60.6865 68.8607 0018145 309.0287 50.9183 15.20414666 2631 ExoCube 2 1 47319U 21002L 21035.61141000 .00000985 00000-0 56244-4 0 9990 2 47319 60.6869 68.3444 0015425 310.4003 49.5736 15.20867776 2621 OBJECT M 1 47320U 21002M 21035.54227586 .00001317 00000-0 70502-4 0 9991 2 47320 60.6866 68.5738 0014757 305.9993 53.9725 15.21165846 2696 OBJECT N 1 47345U 21002N 21035.20707652 .00002555 00000-0 12335-3 0 9992 2 47345 60.6867 69.7700 0016159 290.4206 69.5144 15.21756491 2330 SOMP 2b 1 47445U 21006AJ 21035.77929849 .00000924 00000-0 56427-4 0 9992 2 47445 97.5040 99.2653 0012097 192.7328 167.3599 15.12685610 1990 IDEASSat 1 47458U 21006AX 21035.64796666 .00000912 00000-0 55960-4 0 9999 2 47458 97.5127 99.1545 0011371 190.5740 169.5253 15.12551886 1973 /EX
